EW8360 Weather Reports


time (UTC)temp
C
wind
direction
speed
KPH
gust
KPH
rain 1hr
cm
rain 24hr
cm
rain mn
cm
humidity
%
barometer
mb
20260504151009 15 320 3.2 9.7 0.00 0.00 0.00 69 1014.2
20260504150509 15 269 1.6 8.0 0.00 0.00 0.00 70 1014.2
20260504141009 14 274 0.0 4.8 0.00 0.00 0.00 75 1013.9
20260504140508 14 245 1.6 3.2 0.00 0.00 0.00 76 1014.0
20260504130507 14 258 0.0 3.2 0.00 0.00 0.00 76 1013.6
20260504110504 15 325 6.4 19.3 0.00 0.00 0.00 74 1013.5
20260504100504 15 334 4.8 9.7 0.00 0.00 0.00 75 1013.2
20260504081736 15 338 9.7 22.5 0.00 0.00 0.00 77 1013.8
20260504081238 15 342 16.1 19.3 0.00 0.00 0.00 77 1014.0
20260504080238 15 334 12.9 16.1 0.00 0.00 0.00 76 1014.1
20260504070237 16 274 6.4 22.5 0.00 0.00 0.00 76 1014.4
20260504060235 16 285 3.2 9.7 0.00 0.00 0.00 76 1013.8
20260504050733 16 321 8.0 11.3 0.00 0.00 0.00 74 1013.4
20260504050233 16 323 4.8 9.7 0.00 0.00 0.00 74 1013.6
20260504045733 16 275 0.0 9.7 0.00 0.00 0.00 75 1013.8
20260504045234 16 295 3.2 9.7 0.00 0.00 0.00 75 1013.9
20260504044733 16 258 0.0 9.7 0.00 0.00 0.00 75 1013.7
20260504044233 16 271 6.4 9.7 0.00 0.00 0.00 75 1013.8
20260504043734 16 283 3.2 9.7 0.00 0.00 0.00 75 1013.4
20260504043234 16 246 6.4 9.7 0.00 0.00 0.00 75 1013.6
20260504042955 16 230 8.0 11.3 0.00 0.00 0.00 75 1013.7
20260504042452 16 264 8.0 11.3 0.00 0.00 0.00 75 1013.4
20260504041733 16 300 1.6 9.7 0.00 0.00 0.00 74 1013.3
20260504041233 16 266 1.6 9.7 0.00 0.00 0.00 73 1013.5
20260504040732 16 270 6.4 9.7 0.00 0.00 0.00 74 1013.3
20260504040232 16 272 4.8 9.7 0.00 0.00 0.00 73 1013.1
20260504035733 16 305 6.4 8.0 0.00 0.00 0.00 73 1013.0
20260504035233 16 258 1.6 4.8 0.00 0.00 0.00 73 1013.0
20260504034731 16 271 3.2 8.0 0.00 0.00 0.00 73 1013.0
20260504034231 16 223 4.8 8.0 0.00 0.00 0.00 73 1013.2
20260504033732 16 301 3.2 9.7 0.00 0.00 0.00 74 1013.1
20260504032954 16 257 3.2 12.9 0.00 0.00 0.00 73 1013.3
20260504032231 16 230 1.6 12.9 0.00 0.00 0.00 74 1013.3
20260504031732 16 259 3.2 9.7 0.00 0.00 0.00 74 1013.1
20260504031232 16 246 4.8 11.3 0.00 0.00 0.00 73 1013.0
20260504030730 16 248 3.2 11.3 0.00 0.00 0.00 73 1013.0
20260504030230 16 258 3.2 8.0 0.00 0.00 0.00 73 1013.0
20260504025732 16 239 0.0 9.7 0.00 0.00 0.00 74 1012.9
20260504025231 16 304 4.8 11.3 0.00 0.00 0.00 74 1012.9
20260504024953 16 260 3.2 11.3 0.00 0.00 0.00 73 1012.9
20260504024446 16 242 3.2 11.3 0.00 0.00 0.00 73 1012.8
20260504023733 16 281 4.8 11.3 0.00 0.00 0.00 73 1012.8
20260504022729 16 227 4.8 9.7 0.00 0.00 0.00 72 1012.8
20260504022229 16 259 0.0 14.5 0.00 0.00 0.00 71 1012.9
20260504021729 16 272 1.6 14.5 0.00 0.00 0.00 70 1012.7
20260504021231 16 250 4.8 9.7 0.00 0.00 0.00 69 1012.9
20260504020731 16 225 0.0 11.3 0.00 0.00 0.00 68 1013.0
20260504020230 16 215 0.0 12.9 0.00 0.00 0.00 69 1012.9
20260504015729 17 319 4.8 12.9 0.00 0.00 0.00 69 1012.8
20260504015231 17 310 6.4 12.9 0.00 0.00 0.00 69 1012.7
20260504014731 17 275 6.4 14.5 0.00 0.00 0.00 69 1012.8
20260504014451 17 317 6.4 16.1 0.00 0.00 0.00 69 1012.6
20260504013729 17 273 4.8 16.1 0.00 0.00 0.00 68 1012.6
20260504013458 17 307 6.4 14.5 0.00 0.00 0.00 68 1012.7
20260504012730 17 249 4.8 12.9 0.00 0.00 0.00 69 1012.8
20260504012228 17 273 3.2 14.5 0.00 0.00 0.00 69 1012.7
20260504011728 17 222 3.2 16.1 0.00 0.00 0.00 69 1012.6
20260504011229 17 309 4.8 16.1 0.00 0.00 0.00 69 1012.5
20260504010729 17 281 6.4 16.1 0.00 0.00 0.00 68 1012.4
20260504010229 17 251 11.3 16.1 0.00 0.00 0.00 69 1012.4
20260504005727 17 239 6.4 16.1 0.00 0.00 0.00 68 1012.4
20260504005229 17 331 8.0 14.5 0.00 0.00 0.00 67 1012.4
20260504004730 17 347 11.3 19.3 0.00 0.00 0.00 67 1012.2
20260504004443 17 273 9.7 19.3 0.00 0.00 0.00 68 1012.2
20260504003727 17 286 6.4 16.1 0.00 0.00 0.00 68 1012.0
20260504003229 17 264 8.0 14.5 0.00 0.00 0.00 68 1012.1
20260504002227 17 282 8.0 20.9 0.00 0.00 0.00 68 1012.1
20260504001450 17 260 6.4 16.1 0.00 0.00 0.00 68 1012.0
20260504000728 17 304 8.0 19.3 0.00 0.00 0.00 68 1012.0
20260504000226 17 297 6.4 19.3 0.00 0.00 0.00 67 1011.9
20260503235727 17 276 4.8 14.5 0.00 0.00 0.00 67 1011.9
20260503235227 17 323 12.9 14.5 0.00 0.00 0.00 66 1011.7
20260503234227 18 256 6.4 20.9 0.00 0.00 0.00 64 1011.9
20260503233726 18 302 6.4 16.1 0.00 0.00 0.00 64 1011.6
20260503233227 18 315 8.0 16.1 0.00 0.00 0.00 64 1011.5
20260503232727 18 262 6.4 19.3 0.00 0.00 0.00 63 1011.5
20260503232225 18 257 6.4 19.3 0.00 0.00 0.00 62 1011.7
20260503231725 18 306 6.4 16.1 0.00 0.00 0.00 61 1011.6
20260503231227 18 300 11.3 16.1 0.00 0.00 0.00 61 1011.6
20260503230726 18 296 9.7 16.1 0.00 0.00 0.00 61 1011.8
20260503230225 18 273 3.2 20.9 0.00 0.00 0.00 61 1011.8
20260503225726 18 338 14.5 20.9 0.00 0.00 0.00 61 1011.7
20260503225226 18 267 8.0 16.1 0.00 0.00 0.00 59 1011.9
20260503224948 18 325 9.7 19.3 0.00 0.00 0.00 61 1012.0
20260503224225 18 254 3.2 19.3 0.00 0.00 0.00 59 1012.0
20260503223726 18 262 3.2 12.9 0.00 0.00 0.00 58 1012.0
20260503223224 18 354 8.0 14.5 0.00 0.00 0.00 58 1012.0
20260503222725 18 291 6.4 24.1 0.00 0.00 0.00 58 1011.9
20260503222225 18 325 9.7 24.1 0.00 0.00 0.00 59 1011.9
20260503221725 18 349 11.3 16.1 0.00 0.00 0.00 59 1012.0
20260503221224 18 270 6.4 14.5 0.00 0.00 0.00 60 1012.1
20260503220725 18 351 9.7 16.1 0.00 0.00 0.00 60 1012.0
20260503220225 18 273 6.4 20.9 0.00 0.00 0.00 58 1012.1
20260503215724 18 291 8.0 22.5 0.00 0.00 0.00 58 1012.1
20260503215224 18 282 9.7 22.5 0.00 0.00 0.00 58 1012.3
20260503214724 18 327 14.5 16.1 0.00 0.00 0.00 58 1012.4
20260503214225 18 281 6.4 14.5 0.00 0.00 0.00 58 1012.4
20260503213723 18 340 8.0 16.1 0.00 0.00 0.00 60 1012.4
20260503213444 18 285 6.4 19.3 0.00 0.00 0.00 60 1012.4
20260503212724 18 334 4.8 19.3 0.00 0.00 0.00 58 1012.4
20260503212448 18 285 4.8 22.5 0.00 0.00 0.00 58 1012.4
20260503211723 18 263 6.4 22.5 0.00 0.00 0.00 60 1012.5
20260503211223 18 296 11.3 19.3 0.00 0.00 0.00 59 1012.6
20260503210724 18 286 4.8 19.3 0.00 0.00 0.00 61 1012.6
20260503210224 18 240 3.2 20.9 0.00 0.00 0.00 62 1012.6
20260503205940 18 334 4.8 20.9 0.00 0.00 0.00 62 1012.6
20260503205222 18 291 8.0 19.3 0.00 0.00 0.00 62 1012.7
20260503204941 18 319 9.7 19.3 0.00 0.00 0.00 63 1012.6
20260503204448 18 351 6.4 19.3 0.00 0.00 0.00 65 1012.6
20260503203722 18 291 12.9 20.9 0.00 0.00 0.00 62 1012.5
20260503203448 18 255 9.7 25.7 0.00 0.00 0.00 63 1012.6
20260503202723 18 325 8.0 25.7 0.00 0.00 0.00 63 1012.6
20260503202222 18 326 19.3 24.1 0.00 0.00 0.00 63 1012.6
20260503201721 18 304 6.4 20.9 0.00 0.00 0.00 64 1012.6
20260503201221 18 260 6.4 20.9 0.00 0.00 0.00 63 1012.7
20260503200947 18 329 8.0 20.9 0.00 0.00 0.00 62 1012.7
20260503200224 18 358 6.4 19.3 0.00 0.00 0.00 63 1012.7
20260503195723 18 277 8.0 22.5 0.00 0.00 0.00 64 1012.9
20260503195221 18 346 3.2 22.5 0.00 0.00 0.00 66 1012.9
20260503194721 18 343 11.3 19.3 0.00 0.00 0.00 68 1012.9
20260503194222 18 273 8.0 25.7 0.00 0.00 0.00 67 1012.9
20260503193946 17 241 9.7 25.7 0.00 0.00 0.00 69 1013.0
20260503193221 18 315 16.1 20.9 0.00 0.00 0.00 68 1012.9
20260503192945 17 346 6.4 22.5 0.00 0.00 0.00 69 1013.0
20260503192221 18 333 16.1 24.1 0.00 0.00 0.00 68 1013.1
20260503191721 18 343 14.5 24.1 0.00 0.00 0.00 70 1013.0
20260503191220 18 284 9.7 24.1 0.00 0.00 0.00 69 1013.0
20260503190720 18 359 14.5 27.4 0.00 0.00 0.00 68 1012.9
20260503190221 18 275 11.3 27.4 0.00 0.00 0.00 68 1012.9
20260503185720 18 296 6.4 20.9 0.00 0.00 0.00 69 1012.9
20260503185220 18 334 6.4 20.9 0.00 0.00 0.00 68 1012.9
20260503184721 18 246 8.0 16.1 0.00 0.00 0.00 68 1012.9
20260503184448 18 318 8.0 20.9 0.00 0.00 0.00 68 1012.9
20260503183944 18 313 9.7 20.9 0.00 0.00 0.00 68 1013.0
20260503183219 18 347 12.9 24.1 0.00 0.00 0.00 68 1013.0
20260503182937 18 337 12.9 24.1 0.00 0.00 0.00 69 1012.9
20260503182220 18 354 6.4 22.5 0.00 0.00 0.00 68 1013.0
20260503181946 18 345 8.0 19.3 0.00 0.00 0.00 67 1012.9
20260503181219 18 336 8.0 19.3 0.00 0.00 0.00 68 1012.9
20260503180718 18 337 14.5 16.1 0.00 0.00 0.00 68 1012.9
20260503180440 18 224 3.2 14.5 0.00 0.00 0.00 68 1012.8
20260503175720 18 261 3.2 14.5 0.00 0.00 0.00 67 1012.9
20260503175218 19 337 4.8 11.3 0.00 0.00 0.00 68 1012.9
20260503174719 18 332 6.4 11.3 0.00 0.00 0.00 67 1012.8
20260503174218 18 246 6.4 11.3 0.00 0.00 0.00 66 1012.9
20260503173720 18 271 1.6 8.0 0.00 0.00 0.00 66 1012.9
20260503173219 18 270 1.6 11.3 0.00 0.00 0.00 68 1012.9
20260503172719 18 261 0.0 12.9 0.00 0.00 0.00 67 1012.9
20260503172218 18 327 9.7 14.5 0.00 0.00 0.00 68 1012.9
20260503171720 18 260 4.8 14.5 0.00 0.00 0.00 70 1012.8
20260503171217 17 343 6.4 14.5 0.00 0.00 0.00 71 1012.8
20260503170717 17 350 9.7 14.5 0.00 0.00 0.00 71 1012.9
20260503170217 17 247 3.2 11.3 0.00 0.00 0.00 71 1012.9
20260503160215 17 289 1.6 9.7 0.00 0.00 0.00 71 1012.6